Lowell, ID

3:52 AM MDT on September 21, 2017 (GMT -0600)
Lowell

Weather History for KP69 - November, 2012

Change the Weather History Date:

Thursday, November 22, 2012

  Actual Average Record
Temperature  
Mean Temperature 40 °F -  
Max Temperature 48 °F 42 °F 55 °F (2002)
Min Temperature 32 °F 32 °F 21 °F (2013)
Degree Days  
Heating Degree Days 24    
Moisture  
Dew Point 35 °F    
Average Humidity 87    
Maximum Humidity 93    
Minimum Humidity 63    
Precipitation  
Precipitation 0.00 in - - ()
Sea Level Pressure  
Sea Level Pressure 30.49 in    
Wind  
Wind Speed 0 mph (South)    
Max Wind Speed 5 mph    
Max Gust Speed -    
Averages and records for this station are not official NWS values.
T = Trace of Precipitation, MM = Missing Value Source: NWS Daily Summary

Daily Weather History Graph

Daily Weather History Graph

Search for Another Location

Airport or City:

Trip Planner

Search our weather history database for the weather conditions in past years. The results will help you decide how hot, cold, wet, or windy it might be!

Date:

Astronomy

Nov. 22, 2012 Rise Set
Actual Time 7:53 AM MST 5:03 PM MST
Civil Twilight 7:20 AM MST 5:36 PM MST
Nautical Twilight 6:43 AM MST 6:13 PM MST
Astronomical Twilight 6:07 AM MST 6:49 PM MST
Moon 2:05 PM MST (11/22) 2:01 AM MST (11/22)
Length of Visible Light 10h 16m
Length of Day
9h 09m
Waxing Gibbous, 72% of the Moon is Illuminated
Nov 22
Waxing Gibbous
Nov 28
Full
Dec 6
Last Quarter
Dec 13
New
Dec 19
First Quarter

Hourly Weather History & Observations

Time (MST) Temp. Windchill Dew Point Humidity Pressure Visibility Wind Dir Wind Speed Gust Speed Precip Events Conditions
12:52 AM 39.0 °F - 37.0 °F 93% 30.28 in - Calm Calm - N/A   Unknown
1:52 AM 39.0 °F - 37.0 °F 93% 30.32 in - Calm Calm - N/A   Unknown
2:52 AM 37.9 °F - 36.0 °F 93% 30.36 in - Calm Calm - N/A   Unknown
3:52 AM 37.9 °F - 36.0 °F 93% 30.40 in - Calm Calm - N/A   Unknown
4:52 AM 37.9 °F - 36.0 °F 93% 30.42 in - Calm Calm - N/A   Unknown
5:52 AM 37.0 °F - 35.1 °F 93% 30.45 in - Calm Calm - N/A   Unknown
6:52 AM 37.0 °F - 35.1 °F 93% 30.48 in - Calm Calm - N/A   Unknown
7:52 AM 37.0 °F - 35.1 °F 93% 30.52 in - Calm Calm - N/A   Unknown
8:52 AM 37.9 °F - 35.1 °F 89% 30.53 in - Calm Calm - N/A   Unknown
9:52 AM 39.0 °F - 35.1 °F 86% 30.55 in - Calm Calm - N/A   Unknown
10:52 AM 43.0 °F - 35.1 °F 74% 30.55 in - Calm Calm - N/A   Unknown
11:52 AM 43.0 °F - 36.0 °F 76% 30.54 in - Calm Calm - N/A   Unknown
12:52 PM 48.0 °F - 36.0 °F 63% 30.51 in - North 3.5 mph - N/A   Unknown
1:52 PM 46.9 °F - 37.9 °F 71% 30.50 in - Calm Calm - N/A   Unknown
2:52 PM 48.0 °F - 37.0 °F 66% 30.50 in - Calm Calm - N/A   Unknown
3:52 PM 42.1 °F - 37.0 °F 82% 30.51 in - Calm Calm - N/A   Unknown
4:52 PM 39.0 °F - 35.1 °F 86% 30.53 in - Calm Calm - N/A   Unknown
5:52 PM 37.0 °F - 34.0 °F 89% 30.54 in - Calm Calm - N/A   Unknown
6:52 PM 35.1 °F - 33.1 °F 92% 30.56 in - Calm Calm - N/A   Unknown
7:52 PM 35.1 °F - 33.1 °F 92% 30.56 in - Calm Calm - N/A   Unknown
8:52 PM 34.0 °F 31.0 °F 32.0 °F 92% 30.57 in - North 3.5 mph - N/A   Unknown
9:52 PM 33.1 °F 28.7 °F 30.9 °F 92% 30.56 in - Variable 4.6 mph - N/A   Unknown
10:52 PM 33.1 °F 28.7 °F 30.9 °F 92% 30.56 in - North 4.6 mph - N/A   Unknown
11:52 PM 32.0 °F - 30.0 °F 92% 30.54 in - Calm Calm - N/A   Unknown